Location: Robert Brownlee Observatory
(34.2308°N, 117.2089°W)
Time: 15:43:38
(UTC-07:00)

Cosmos 1943 - Visible Passes

Search period start: 30 August 2015 00:00
Search period end: 09 September 2015 00:00
Orbit: 833 x 851 km, 71.0° (Epoch: 30 August)

Date Brightness Start Highest point End Pass type
(mag) Time Alt. Az. Time Alt. Az. Time Alt. Az.
30 Aug 3.4 05:38:12 10° SSW 05:43:48 77° ESE 05:49:27 10° NNE visible
31 Aug 3.4 05:23:18 10° SSW 05:28:52 73° ESE 05:34:31 10° NNE visible
01 Sep 3.5 05:08:23 10° S 05:13:57 69° ESE 05:19:34 10° NNE visible
02 Sep 3.5 04:53:30 10° S 04:59:01 65° ESE 05:04:38 10° NNE visible
03 Sep 3.6 04:39:53 17° S 04:44:06 61° ESE 04:49:41 10° NNE visible
04 Sep 3.7 04:26:11 26° S 04:29:11 57° ESE 04:34:44 10° NNE visible
05 Sep 3.7 04:12:24 37° SSE 04:14:16 54° ESE 04:19:47 10° NNE visible
05 Sep 4.7 05:54:47 10° W 05:58:45 19° NW 06:02:33 10° NNW visible
06 Sep 3.8 03:58:31 47° SE 03:59:21 51° ESE 04:04:49 10° NNE visible
06 Sep 4.6 05:40:23 12° W 05:43:47 20° NW 05:47:44 10° NNW visible
07 Sep 3.9 03:44:33 48° ESE 03:44:33 48° ESE 03:49:52 10° NNE visible
07 Sep 4.6 05:26:25 16° W 05:28:49 21° WNW 05:32:54 10° N visible
08 Sep 4.2 03:30:32 41° ENE 03:30:32 41° ENE 03:34:54 10° NE visible
08 Sep 4.5 05:12:23 20° W 05:13:51 22° WNW 05:18:04 10° N visible
